[[{"header":{"parameterUnit":"m.s-1","parameterCategory":2,"la1":30.2991,"la2":30.254,"lo1":-89.0895,"lo2":-89.0444,"dy":0.0017,"dx":0.0017,"nx":28,"ny":28,"refTime":"2024-12-31T03:00:00:Z","depth":"0","parameterNumber":2,"parameterNumberName":"U-component_of_CURRENTS"},"data":[0,0,0,0,0,0,0,0,0,0,0,0,0,0,0,0,0,0,0,0,0,0,0,0,0,0,0,0,0,0,0,0,0,0,0,0,0,0,0,0,0,0,0,0,0,0,0,0,0,0,0,0,0,0,0,0,0,0,-0.2225,-0.2226,0,-0.2336,-0.2337,-0.2338,-0.2315,-0.2314,-0.2312,-0.2311,-0.2313,-0.2314,-0.2316,0,0,0,0,0,0,0,0,0,0,0,0,0,-0.2028,-0.2031,-0.2225,-0.2226,-0.2228,-0.2336,-0.2337,-0.2338,-0.2316,-0.2314,-0.2312,-0.231,-0.2312,-0.2314,-0.2316,0,0,0,0,0,0,0,0,0,0,0,0,0,-0.2119,-0.2032,-0.2224,-0.2234,-0.2236,-0.2336,-0.2337,-0.2339,-0.2316,-0.2314,-0.2311,-0.2309,-0.2311,-0.2314,-0.2316,-0.2378,0,0,-0.2323,-0.2324,0,0,0,0,0,0,0,0,-0.2114,-0.2125,-0.223,-0.2233,-0.2236,-0.2314,-0.2269,-0.2348,-0.2317,-0.228,-0.2311,-0.2308,-0.2308,-0.231,-0.2331,-0.2378,-0.2378,-0.2323,-0.2325,-0.2326,-0.2326,0,0,0,0,0,0,0,-0.2107,-0.2121,-0.2264,-0.2233,-0.2236,-0.2245,-0.2254,-0.2284,-0.23,-0.2283,-0.2283,-0.2304,-0.2307,-0.2329,-0.2331,-0.2378,-0.2323,-0.2325,-0.2327,-0.2327,-0.2482,-0.2485,0,0,0,0,0,0,-0.2105,-0.2115,-0.226,-0.2268,-0.2173,-0.2251,-0.2261,-0.2287,-0.2302,-0.2305,-0.2306,-0.2303,-0.2326,-0.2328,-0.2331,-0.2419,-0.2326,-0.2328,-0.2329,-0.248,-0.2483,-0.2486,0,0,0,0,0,0,-0.2101,-0.2117,-0.2256,-0.2197,-0.2216,-0.2257,-0.2286,-0.2291,-0.2312,-0.2322,-0.232,-0.2323,-0.2324,-0.2327,-0.2374,-0.2418,-0.2329,-0.2331,-0.2476,-0.2481,-0.2484,-0.2587,0,0,0,0,0,0,-0.2094,-0.2115,-0.2132,-0.2197,-0.2219,-0.2328,-0.2289,-0.2295,-0.2331,-0.2327,-0.2336,-0.2334,-0.2323,-0.2371,-0.2376,-0.242,-0.2333,-0.2473,-0.2478,-0.2483,-0.258,-0.2594,-0.2606,0,0,0,0,0,-0.2087,-0.2126,-0.2132,-0.215,-0.2242,-0.2331,-0.2343,-0.236,-0.2334,-0.2364,-0.2369,-0.2333,-0.2406,-0.2376,-0.2381,-0.2426,-0.247,-0.2477,-0.2483,-0.2575,-0.2592,-0.2606,0,0,0,0,0,0,-0.2049,-0.213,-0.2137,-0.2197,-0.2264,-0.2329,-0.2363,-0.2371,-0.2401,-0.239,-0.2376,-0.2378,-0.2431,-0.2423,-0.239,-0.2487,-0.243,-0.2438,-0.2498,-0.2514,-0.2527,-0.2514,-0.2335,0,0,0,0,0,-0.2052,-0.2096,-0.2178,-0.2224,-0.2263,-0.2313,-0.2348,-0.2367,-0.2406,-0.2416,-0.2424,-0.2436,-0.2467,-0.2483,-0.2504,-0.2568,-0.2525,-0.2598,-0.2611,-0.2622,-0.2618,-0.2644,-0.2658,-0.2506,-0.2506,-0.2506,0,0,-0.2046,-0.2099,-0.2121,-0.2218,-0.2267,-0.2349,-0.2327,-0.2396,-0.2452,-0.2413,-0.2478,-0.2482,-0.2493,-0.2559,-0.2582,-0.2555,-0.2634,-0.263,-0.2639,-0.2628,-0.2652,-0.2666,-0.2679,-0.251,-0.2509,-0.2509,0,0,-0.208,-0.2113,-0.2172,-0.2239,-0.2331,-0.2373,-0.2397,-0.2474,-0.2495,-0.2569,-0.2551,-0.2591,-0.2633,-0.2662,-0.2677,-0.2781,-0.27,-0.2777,-0.2837,-0.2865,-0.2877,-0.2887,-0.2801,-0.2803,-0.2787,-0.2787,-0.2787,0,-0.2072,-0.2162,-0.2203,-0.2291,-0.2356,-0.2388,-0.248,-0.2521,-0.2597,-0.2629,-0.2597,-0.2682,-0.2689,-0.2776,-0.2802,-0.2811,-0.2763,-0.2776,-0.288,-0.2889,-0.2898,-0.2808,-0.2808,-0.2793,-0.2792,-0.2792,-0.2791,0,-0.2162,-0.2239,-0.2286,-0.2402,-0.2473,-0.2558,-0.2634,-0.2688,-0.2706,-0.2741,-0.2817,-0.2832,-0.2874,-0.2892,-0.2874,-0.2951,-0.2872,-0.2889,-0.2834,-0.2919,-0.2818,-0.2817,-0.2801,-0.2799,-0.2797,-0.2796,0,0,-0.2142,-0.2315,-0.2331,-0.2407,-0.2543,-0.2611,-0.2714,-0.2824,-0.287,-0.2922,-0.2982,-0.3047,-0.3024,-0.3039,-0.3029,-0.305,-0.3056,-0.2988,-0.2987,-0.2888,-0.302,-0.2851,-0.2831,-0.3087,-0.3089,-0.309,-0.2904,0,-0.2208,-0.2369,-0.2447,-0.26,-0.2696,-0.2773,-0.2861,-0.2949,-0.2992,-0.3046,-0.3074,-0.3115,-0.309,-0.3093,-0.3121,-0.3078,-0.3065,-0.3098,-0.2963,-0.2956,-0.2789,-0.2832,-0.2705,-0.252,-0.2902,-0.2902,-0.2902,0,-0.2278,-0.2382,-0.2536,-0.2707,-0.2755,-0.2831,-0.2965,-0.3053,-0.3136,-0.3163,-0.321,-0.3203,-0.324,-0.3198,-0.3168,-0.3181,-0.31,-0.3056,-0.3049,-0.2856,-0.2789,-0.251,-0.2503,-0.2495,-0.2899,-0.2899,-0.2899,0,-0.2243,-0.2445,-0.2561,-0.2625,-0.2814,-0.2878,-0.2963,-0.307,-0.3125,-0.3212,-0.3207,-0.3281,-0.3229,-0.324,-0.3109,-0.3151,-0.3012,-0.3074,-0.2836,-0.2818,-0.2664,-0.2631,-0.2626,-0.3044,-0.3045,-0.3045,-0.3046,0,-0.2294,-0.2387,-0.2541,-0.2608,-0.2719,-0.2857,-0.2953,-0.3042,-0.3132,-0.3134,-0.3229,-0.3179,-0.323,-0.3142,-0.3107,-0.2913,-0.3008,-0.2825,-0.278,-0.2688,-0.2661,-0.2608,-0.2645,-0.3038,-0.304,-0.3041,-0.3042,0,-0.2242,-0.2361,-0.2482,-0.2656,-0.2704,-0.2766,-0.2913,-0.2957,-0.3054,-0.3045,-0.3058,-0.3071,-0.2953,-0.2938,-0.2867,-0.2818,-0.2666,-0.2628,-0.2447,-0.2385,-0.2224,-0.227,-0.2168,-0.2114,-0.2399,-0.2394,-0.2389,0,-0.2241,-0.2292,-0.2446,-0.2483,-0.2554,-0.2664,-0.2714,-0.2882,-0.2899,-0.2922,-0.2866,-0.2783,-0.2645,-0.2478,-0.2418,-0.2318,-0.2377,-0.2134,-0.2242,-0.2175,-0.2196,-0.2252,-0.2221,-0.2049,-0.2042,-0.2037,-0.2033,0,-0.2189,-0.2213,-0.2284,-0.2352,-0.2408,-0.2491,-0.256,-0.2578,-0.2694,-0.265,-0.252,-0.2432,-0.225,-0.2083,-0.1959,-0.1916,-0.2104,-0.2017,-0.2043,-0.1988,-0.1957,-0.1893,-0.2142,-0.1984,-0.1989,-0.1993,-0.1995,-0.1997,-0.2086,-0.2086,-0.2136,-0.2191,-0.2242,-0.2258,-0.2252,-0.2283,-0.2256,-0.2148,-0.2161,-0.1962,-0.1877,-0.1698,-0.1637,-0.1539,-0.1675,-0.1564,-0.1631,-0.1698,-0.1648,-0.1721,-0.1471,-0.1473,-0.1475,-0.1476,-0.1477,0,-0.1953,-0.1949,-0.1976,-0.2015,-0.1977,-0.2076,-0.209,-0.2015,-0.1865,-0.1809,-0.167,-0.1525,-0.1372,-0.1355,-0.1268,-0.1212,-0.1251,-0.1219,-0.133,-0.1326,-0.1453,-0.1442,-0.106,-0.106,-0.106,-0.106,-0.106,-0.106,-0.1879,-0.1827,-0.1838,-0.1732,-0.1738,-0.164,-0.1604,-0.1485,-0.142,-0.1204,-0.1114,-0.1101,-0.1134,-0.1223,-0.115,-0.1098,-0.1146,-0.1065,-0.1148,-0.1309,-0.135,-0.1389,-0.1391,-0.1004,-0.1004,-0.0974,-0.0974,-0.0974]},{"header":{"parameterUnit":"m.s-1","parameterCategory":2,"la1":30.2991,"la2":30.254,"lo1":-89.0895,"lo2":-89.0444,"dy":0.0017,"dx":0.0017,"nx":28,"ny":28,"refTime":"2024-12-31T03:00:00:Z","depth":"0","parameterNumber":3,"parameterNumberName":"V-component_of_CURRENTS"},"data":[0,0,0,0,0,0,0,0,0,0,0,0,0,0,0,0,0,0,0,0,0,0,0,0,0,0,0,0,0,0,0,0,0,0,0,0,0,0,0,0,0,0,0,0,0,0,0,0,0,0,0,0,0,0,0,0,0,0,-0.0036,-0.0035,0,0.0068,0.0069,0.007,0.0128,0.0128,0.0128,0.0129,0.0256,0.026,0.0263,0,0,0,0,0,0,0,0,0,0,0,0,0,-0.0095,-0.0094,-0.0036,-0.0035,-0.0034,0.0067,0.0069,0.007,0.0128,0.0128,0.0128,0.0129,0.0255,0.0259,0.0263,0,0,0,0,0,0,0,0,0,0,0,0,0,-0.0038,-0.0094,-0.0037,0.0007,0.0012,0.0067,0.0069,0.0071,0.0128,0.0128,0.0128,0.0129,0.0254,0.0259,0.0264,0.0289,0,0,0.0279,0.0281,0,0,0,0,0,0,0,0,-0.0041,-0.0036,-0.0001,0.0004,0.001,0.0085,0.0095,0.0145,0.0128,0.0084,0.0129,0.0129,0.0201,0.021,0.0229,0.0295,0.0301,0.0279,0.0282,0.0284,0.0286,0,0,0,0,0,0,0,-0.0045,-0.0039,0.0005,0.0001,0.0007,0.0052,0.006,0.0105,0.0141,0.0088,0.0092,0.0104,0.0204,0.0224,0.0233,0.0303,0.0279,0.0283,0.0286,0.0288,0.0445,0.0446,0,0,0,0,0,0,-0.0064,-0.0044,0.0002,0.0008,-0.0016,0.0053,0.0061,0.0061,0.014,0.0152,0.0103,0.0106,0.0216,0.0227,0.0238,0.0283,0.0284,0.0289,0.0291,0.0443,0.0445,0.0446,0,0,0,0,0,0,-0.0066,-0.0061,-0.0002,-0.0015,-0.0004,0.0053,0.0052,0.0063,0.0085,0.0151,0.0164,0.0115,0.0217,0.0231,0.0286,0.0288,0.0291,0.0295,0.0442,0.0444,0.0446,0.0367,0,0,0,0,0,0,-0.0068,-0.0063,-0.0074,-0.0017,-0.0004,0.0029,0.0052,0.0065,0.0091,0.0096,0.0165,0.0177,0.0218,0.0278,0.029,0.0295,0.0299,0.044,0.0443,0.0445,0.0368,0.0366,0.0364,0,0,0,0,0,-0.0071,-0.0087,-0.0076,-0.007,-0.0021,0.0029,0.004,0.0082,0.0091,0.0103,0.0152,0.0175,0.0302,0.0283,0.0297,0.0302,0.0439,0.0442,0.0445,0.0369,0.0366,0.0364,0,0,0,0,0,0,-0.0126,-0.0081,-0.0067,-0.0072,-0.0025,0.0039,0.0048,0.0078,0.0126,0.0128,0.0187,0.0203,0.0258,0.0296,0.0273,0.0359,0.0376,0.0382,0.0314,0.0312,0.031,0.0269,0.0303,0,0,0,0,0,-0.0143,-0.0142,-0.0085,-0.009,-0.007,-0.0013,0.001,0.0042,0.0094,0.0114,0.0165,0.0223,0.0281,0.0306,0.0365,0.0402,0.0431,0.0421,0.0418,0.0416,0.0397,0.0425,0.0422,0.0455,0.0455,0.0455,0,0,-0.017,-0.0144,-0.0145,-0.0101,-0.0066,-0.0047,0.0001,0.0034,0.005,0.0121,0.0155,0.0221,0.0293,0.0343,0.0369,0.037,0.0432,0.042,0.0416,0.0398,0.0427,0.0423,0.042,0.0457,0.0457,0.0456,0,0,-0.0211,-0.0194,-0.0201,-0.0166,-0.0113,-0.0074,-0.0068,0.0001,0.0032,0.0082,0.0138,0.0198,0.0283,0.0331,0.0366,0.039,0.0426,0.0418,0.0363,0.039,0.0386,0.0383,0.0446,0.0449,0.0408,0.0407,0.0407,0,-0.0247,-0.0254,-0.0194,-0.0185,-0.0177,-0.0094,-0.0101,-0.0048,0.0029,0.0046,0.0084,0.0204,0.0275,0.0318,0.0338,0.038,0.041,0.0358,0.0382,0.038,0.0377,0.0443,0.0447,0.0404,0.0404,0.0405,0.0405,0,-0.0283,-0.0292,-0.0293,-0.0264,-0.0237,-0.023,-0.0155,-0.012,-0.0071,-0.0019,0.0046,0.0146,0.0208,0.0254,0.0307,0.0332,0.0366,0.0378,0.0373,0.0368,0.044,0.0445,0.0399,0.04,0.0401,0.0402,0,0,-0.0364,-0.0331,-0.0334,-0.0353,-0.0287,-0.0278,-0.0241,-0.0198,-0.019,-0.0092,-0.0075,0.0046,0.0099,0.0144,0.022,0.0255,0.0299,0.0303,0.0306,0.034,0.038,0.0426,0.0438,0.0302,0.0302,0.0301,0.0445,0,-0.0422,-0.0454,-0.0408,-0.0448,-0.0467,-0.0391,-0.0373,-0.0315,-0.0242,-0.0192,-0.0083,-0.0026,0.0058,0.0089,0.0139,0.0273,0.0305,0.0261,0.0402,0.0407,0.0426,0.0442,0.0474,0.0604,0.0451,0.0452,0.0453,0,-0.0476,-0.05,-0.0551,-0.0571,-0.0571,-0.0568,-0.0547,-0.0513,-0.0406,-0.0351,-0.0272,-0.017,-0.0065,-0.0008,0.0172,0.0137,0.0239,0.0332,0.034,0.0405,0.0462,0.0583,0.0621,0.0751,0.0462,0.0461,0.046,0,-0.0582,-0.0607,-0.0666,-0.0668,-0.0656,-0.0667,-0.0652,-0.0569,-0.0546,-0.0449,-0.0402,-0.0281,-0.0182,-0.0064,0.0169,0.0159,0.0367,0.0376,0.0507,0.0514,0.0579,0.0591,0.0731,0.0451,0.045,0.045,0.045,0,-0.0675,-0.0723,-0.0725,-0.076,-0.0835,-0.0777,-0.0814,-0.0768,-0.0687,-0.0634,-0.0496,-0.0404,-0.0196,-0.0024,0.0135,0.0366,0.0342,0.0499,0.0543,0.056,0.0568,0.0715,0.0757,0.0456,0.0454,0.0453,0.0452,0,-0.0774,-0.0771,-0.0848,-0.0872,-0.0884,-0.0934,-0.0926,-0.0928,-0.0835,-0.0751,-0.0719,-0.0488,-0.0247,-0.0031,0.0216,0.0349,0.0626,0.0607,0.0636,0.068,0.0897,0.0933,0.1099,0.1186,0.0764,0.0765,0.0767,0,-0.0825,-0.0871,-0.0942,-0.0993,-0.1007,-0.1061,-0.108,-0.1019,-0.0985,-0.077,-0.0717,-0.0472,-0.0243,0.0139,0.0382,0.0645,0.0732,0.0808,0.0777,0.0915,0.0989,0.1005,0.1066,0.0861,0.0864,0.0865,0.0867,0,-0.0924,-0.094,-0.1001,-0.1112,-0.1162,-0.1212,-0.121,-0.1195,-0.1054,-0.0919,-0.0661,-0.0462,-0.0078,0.0267,0.0578,0.0727,0.09,0.0851,0.098,0.1059,0.1099,0.1202,0.0788,0.0883,0.0881,0.088,0.0879,0.0879,-0.0981,-0.1053,-0.1123,-0.1227,-0.1286,-0.1303,-0.1298,-0.1208,-0.109,-0.0789,-0.0622,-0.0228,0.0168,0.063,0.0788,0.1098,0.1053,0.1191,0.1225,0.1231,0.1299,0.093,0.1072,0.1071,0.1071,0.1071,0.107,0,-0.1051,-0.1121,-0.1229,-0.1327,-0.139,-0.1393,-0.1338,-0.1232,-0.1015,-0.0695,-0.0401,0.0166,0.0563,0.0906,0.1304,0.1471,0.1495,0.1548,0.158,0.1627,0.1302,0.129,0.1501,0.1501,0.15,0.15,0.15,0.15,-0.1087,-0.1199,-0.1261,-0.1387,-0.1437,-0.143,-0.1369,-0.1122,-0.0857,-0.0318,0.0093,0.0397,0.0847,0.1406,0.1775,0.1807,0.1955,0.1926,0.2012,0.1786,0.1755,0.1725,0.1725,0.2024,0.2024,0.2331,0.2334,0.2337]}],[{"header":{"parameterUnit":"m.s-1","parameterCategory":2,"la1":30.2991,"la2":30.254,"lo1":-89.0895,"lo2":-89.0444,"dy":0.0017,"dx":0.0017,"nx":28,"ny":28,"refTime":"2024-12-31T03:00:00:Z","depth":"2","parameterNumber":2,"parameterNumberName":"U-component_of_CURRENTS"},"data":[0,0,0,0,0,0,0,0,0,0,0,0,0,0,0,0,0,0,0,0,0,0,0,0,0,0,0,0,0,0,0,0,0,0,0,0,0,0,0,0,0,0,0,0,0,0,0,0,0,0,0,0,0,0,0,0,0,0,-0.1538,-0.1539,0,-0.1604,-0.1605,-0.1605,-0.1615,-0.1615,-0.1615,-0.1615,-0.1692,-0.1694,-0.1696,0,0,0,0,0,0,0,0,0,0,0,0,0,-0.1464,-0.1464,-0.1538,-0.1539,-0.154,-0.1604,-0.1605,-0.1605,-0.1615,-0.1615,-0.1615,-0.1614,-0.1691,-0.1693,-0.1696,0,0,0,0,0,0,0,0,0,0,0,0,0,-0.1505,-0.1464,-0.1538,-0.1557,-0.1559,-0.1604,-0.1605,-0.1605,-0.1615,-0.1615,-0.1615,-0.1614,-0.169,-0.1693,-0.1696,-0.1721,0,0,-0.1706,-0.1708,0,0,0,0,0,0,0,0,-0.1502,-0.1507,-0.1552,-0.1555,-0.1559,-0.1605,-0.1607,-0.1646,-0.1615,-0.1589,-0.1615,-0.1614,-0.1667,-0.1672,-0.1678,-0.1725,-0.1728,-0.1707,-0.1709,-0.171,-0.1711,0,0,0,0,0,0,0,-0.1499,-0.1504,-0.1559,-0.1554,-0.1558,-0.1577,-0.1582,-0.1614,-0.1625,-0.1591,-0.1593,-0.1608,-0.1668,-0.1675,-0.168,-0.1729,-0.1707,-0.171,-0.1712,-0.1713,-0.1857,-0.1859,0,0,0,0,0,0,-0.1499,-0.1501,-0.1557,-0.1562,-0.1535,-0.1579,-0.1584,-0.1587,-0.1624,-0.1631,-0.1608,-0.1609,-0.1669,-0.1676,-0.1683,-0.1806,-0.171,-0.1713,-0.1715,-0.1855,-0.1858,-0.186,0,0,0,0,0,0,-0.1497,-0.1503,-0.1555,-0.1538,-0.1546,-0.1581,-0.1584,-0.1588,-0.1631,-0.1638,-0.1644,-0.1652,-0.167,-0.1678,-0.176,-0.1806,-0.1715,-0.1718,-0.1853,-0.1856,-0.1859,-0.1995,0,0,0,0,0,0,-0.1494,-0.1501,-0.1516,-0.1537,-0.1547,-0.1643,-0.1585,-0.159,-0.1641,-0.1643,-0.1677,-0.1682,-0.167,-0.1755,-0.1763,-0.1809,-0.172,-0.1851,-0.1854,-0.1858,-0.1988,-0.2002,-0.2014,0,0,0,0,0,-0.1491,-0.1543,-0.1516,-0.1524,-0.1562,-0.1647,-0.1657,-0.1675,-0.1644,-0.1703,-0.1709,-0.1682,-0.1781,-0.1761,-0.1769,-0.1817,-0.1849,-0.1853,-0.1857,-0.1982,-0.1999,-0.2013,0,0,0,0,0,0,-0.1524,-0.1549,-0.1521,-0.1575,-0.1624,-0.1652,-0.1721,-0.1701,-0.1749,-0.1754,-0.1729,-0.1738,-0.1814,-0.1801,-0.1779,-0.1863,-0.1802,-0.1808,-0.1893,-0.1909,-0.1922,-0.1956,-0.1723,0,0,0,0,0,-0.1531,-0.1574,-0.1598,-0.1645,-0.1686,-0.1697,-0.1734,-0.1741,-0.1778,-0.1798,-0.181,-0.1817,-0.1831,-0.1863,-0.1879,-0.1951,-0.192,-0.1976,-0.199,-0.2001,-0.2032,-0.2093,-0.2116,-0.1873,-0.1873,-0.1873,0,0,-0.1556,-0.1576,-0.1599,-0.1655,-0.1698,-0.1771,-0.1723,-0.1813,-0.1859,-0.1801,-0.1891,-0.1875,-0.1859,-0.1927,-0.1959,-0.1932,-0.2029,-0.2006,-0.2016,-0.2042,-0.21,-0.2124,-0.2146,-0.1876,-0.1876,-0.1875,0,0,-0.1651,-0.1657,-0.1732,-0.178,-0.1854,-0.1867,-0.1901,-0.195,-0.1976,-0.2036,-0.1996,-0.2031,-0.2051,-0.2067,-0.2063,-0.2165,-0.2093,-0.2143,-0.2252,-0.2312,-0.2333,-0.2352,-0.2241,-0.2249,-0.2156,-0.2156,-0.2157,0,-0.167,-0.1746,-0.1775,-0.1861,-0.191,-0.1915,-0.2005,-0.204,-0.2097,-0.2136,-0.2089,-0.2136,-0.2119,-0.2204,-0.2214,-0.22,-0.2161,-0.2196,-0.2332,-0.2351,-0.2368,-0.225,-0.2258,-0.2163,-0.2163,-0.2162,-0.2161,0,-0.182,-0.1872,-0.1945,-0.2026,-0.2094,-0.2184,-0.2227,-0.23,-0.2294,-0.2296,-0.2382,-0.236,-0.2382,-0.2369,-0.2312,-0.2422,-0.2322,-0.2339,-0.23,-0.2401,-0.2268,-0.2273,-0.2174,-0.2171,-0.2169,-0.2167,0,0,-0.1851,-0.2008,-0.2025,-0.2072,-0.218,-0.2244,-0.2368,-0.2466,-0.2496,-0.2562,-0.2597,-0.2646,-0.2613,-0.2607,-0.256,-0.2603,-0.2626,-0.2519,-0.2519,-0.2416,-0.2636,-0.2485,-0.2473,-0.268,-0.2684,-0.2687,-0.2456,0,-0.1944,-0.2113,-0.2167,-0.2302,-0.2393,-0.2444,-0.2538,-0.2622,-0.2626,-0.2658,-0.2702,-0.2688,-0.2709,-0.2656,-0.2745,-0.2643,-0.2663,-0.2678,-0.2546,-0.2539,-0.2405,-0.2487,-0.2317,-0.2096,-0.2461,-0.2462,-0.2462,0,-0.2046,-0.2147,-0.231,-0.2419,-0.2465,-0.2545,-0.2659,-0.2734,-0.2806,-0.2801,-0.2872,-0.2802,-0.2873,-0.2823,-0.2867,-0.2873,-0.2779,-0.2711,-0.2701,-0.2536,-0.2405,-0.2074,-0.2091,-0.247,-0.2469,-0.2469,-0.2468,0,-0.2044,-0.2216,-0.2342,-0.2389,-0.2541,-0.2631,-0.2715,-0.2804,-0.2797,-0.2864,-0.2802,-0.2921,-0.2865,-0.292,-0.2774,-0.2817,-0.2727,-0.2767,-0.2548,-0.2527,-0.2346,-0.2306,-0.2804,-0.2804,-0.2805,-0.2805,-0.2806,0,-0.2079,-0.2164,-0.2357,-0.2421,-0.2507,-0.2661,-0.2712,-0.2789,-0.2828,-0.2786,-0.2872,-0.2797,-0.289,-0.2806,-0.2771,-0.2649,-0.2748,-0.2574,-0.2507,-0.2371,-0.2338,-0.2662,-0.2649,-0.2796,-0.2798,-0.28,-0.2801,0,-0.2012,-0.2153,-0.2276,-0.2475,-0.2496,-0.2576,-0.2628,-0.264,-0.2742,-0.267,-0.2663,-0.2669,-0.2617,-0.2607,-0.2552,-0.256,-0.2481,-0.2389,-0.2129,-0.2043,-0.2226,-0.2222,-0.2183,-0.2176,-0.2171,-0.2167,-0.2163,0,-0.2,-0.2075,-0.2239,-0.2253,-0.2327,-0.2427,-0.2441,-0.2561,-0.2536,-0.2559,-0.249,-0.2413,-0.2318,-0.2205,-0.2171,-0.2077,-0.222,-0.1866,-0.1993,-0.2248,-0.2186,-0.219,-0.2193,-0.1729,-0.1722,-0.1717,-0.1712,0,-0.1954,-0.202,-0.2101,-0.2084,-0.2118,-0.2156,-0.2212,-0.2139,-0.2269,-0.223,-0.2156,-0.2082,-0.1982,-0.1829,-0.1721,-0.168,-0.1908,-0.1748,-0.2113,-0.1938,-0.1811,-0.1753,-0.1773,-0.1662,-0.1667,-0.167,-0.1673,-0.1675,-0.1881,-0.1891,-0.1943,-0.1891,-0.1917,-0.1907,-0.1851,-0.1893,-0.1831,-0.1767,-0.1804,-0.1699,-0.1688,-0.1453,-0.1367,-0.1335,-0.1499,-0.1498,-0.152,-0.1547,-0.1562,-0.1438,-0.1208,-0.1211,-0.1213,-0.1214,-0.1216,0,-0.177,-0.176,-0.1716,-0.1686,-0.1625,-0.1704,-0.1676,-0.1614,-0.15,-0.1476,-0.1419,-0.1238,-0.1113,-0.1122,-0.0982,-0.0977,-0.1029,-0.0965,-0.1048,-0.1095,-0.1138,-0.114,-0.0669,-0.0668,-0.0667,-0.0666,0,0,-0.1711,-0.1625,-0.1575,-0.1402,-0.1379,-0.1266,-0.1235,-0.1177,-0.1135,-0.1012,-0.095,-0.1009,-0.1039,-0.0838,-0.081,-0.0709,-0.0901,-0.0674,-0.1104,-0.1244,-0.1286,-0.1425,-0.1477,0,0,0,0,0]},{"header":{"parameterUnit":"m.s-1","parameterCategory":2,"la1":30.2991,"la2":30.254,"lo1":-89.0895,"lo2":-89.0444,"dy":0.0017,"dx":0.0017,"nx":28,"ny":28,"refTime":"2024-12-31T03:00:00:Z","depth":"2","parameterNumber":3,"parameterNumberName":"V-component_of_CURRENTS"},"data":[0,0,0,0,0,0,0,0,0,0,0,0,0,0,0,0,0,0,0,0,0,0,0,0,0,0,0,0,0,0,0,0,0,0,0,0,0,0,0,0,0,0,0,0,0,0,0,0,0,0,0,0,0,0,0,0,0,0,0.0087,0.0088,0,0.0125,0.0126,0.0126,0.0154,0.0155,0.0155,0.0155,0.023,0.0231,0.0233,0,0,0,0,0,0,0,0,0,0,0,0,0,0.0052,0.0053,0.0087,0.0088,0.0088,0.0125,0.0126,0.0126,0.0154,0.0155,0.0155,0.0155,0.0229,0.0231,0.0233,0,0,0,0,0,0,0,0,0,0,0,0,0,0.0077,0.0053,0.0087,0.0106,0.0108,0.0125,0.0126,0.0126,0.0154,0.0155,0.0155,0.0155,0.0228,0.0231,0.0234,0.0245,0,0,0.0242,0.0243,0,0,0,0,0,0,0,0,0.0076,0.0079,0.0103,0.0105,0.0107,0.0135,0.0141,0.0168,0.0154,0.0138,0.0155,0.0155,0.0201,0.0206,0.0213,0.0249,0.0252,0.0242,0.0244,0.0245,0.0246,0,0,0,0,0,0,0,0.0074,0.0077,0.0103,0.0103,0.0106,0.0117,0.0121,0.0146,0.0168,0.0139,0.0141,0.0144,0.0202,0.021,0.0215,0.0253,0.0242,0.0245,0.0246,0.0247,0.0284,0.0283,0,0,0,0,0,0,0.0067,0.0076,0.0102,0.0104,0.0091,0.0117,0.0121,0.0126,0.0167,0.0173,0.0144,0.0145,0.0205,0.0212,0.0218,0.021,0.0245,0.0248,0.0249,0.0284,0.0283,0.0283,0,0,0,0,0,0,0.0066,0.0069,0.01,0.009,0.0095,0.0117,0.0122,0.0127,0.013,0.017,0.0177,0.0141,0.0206,0.0214,0.0237,0.0214,0.0249,0.0251,0.0285,0.0284,0.0283,0.021,0,0,0,0,0,0,0.0065,0.0068,0.0064,0.0089,0.0095,0.0102,0.0122,0.0127,0.0131,0.0133,0.0171,0.0178,0.0207,0.0232,0.0239,0.0218,0.0253,0.0286,0.0285,0.0283,0.0213,0.0206,0.0201,0,0,0,0,0,0.0063,0.005,0.0064,0.0067,0.009,0.0101,0.0105,0.0123,0.013,0.0127,0.0156,0.0177,0.0229,0.0235,0.0243,0.0222,0.0287,0.0285,0.0283,0.0216,0.0208,0.0201,0,0,0,0,0,0,0.0036,0.0053,0.0068,0.0063,0.0079,0.0106,0.0093,0.0116,0.0135,0.013,0.0176,0.0186,0.0191,0.0221,0.0226,0.0228,0.0258,0.0258,0.0203,0.0196,0.019,0.0186,0.0256,0,0,0,0,0,0.0028,0.0018,0.0048,0.0041,0.0041,0.0067,0.0072,0.0086,0.0108,0.0116,0.0142,0.0169,0.0191,0.0206,0.0225,0.0236,0.0281,0.0226,0.0219,0.0214,0.0216,0.0289,0.029,0.0278,0.0278,0.0278,0,0,0.0015,0.0022,0.0018,0.0034,0.0039,0.0032,0.0069,0.0063,0.0066,0.0121,0.0119,0.0145,0.0188,0.0192,0.0198,0.0216,0.0234,0.0212,0.0207,0.0213,0.0288,0.029,0.0291,0.0277,0.0277,0.0277,0,0,-0.0034,-0.0013,-0.0046,-0.0034,-0.0029,-0.0007,-0.001,0.001,0.0023,0.0031,0.0068,0.0094,0.0114,0.0153,0.0175,0.0151,0.0194,0.0139,0.0111,0.0181,0.0184,0.0186,0.0215,0.022,0.0142,0.0141,0.0141,0,-0.005,-0.0081,-0.0052,-0.0077,-0.0077,-0.0028,-0.0056,-0.003,-0.0001,0.0016,0.0015,0.0068,0.0101,0.014,0.0121,0.0138,0.0168,0.0134,0.0175,0.0178,0.0182,0.0211,0.0219,0.0138,0.0138,0.0138,0.0139,0,-0.0125,-0.0142,-0.0164,-0.0175,-0.0164,-0.0182,-0.0139,-0.0128,-0.0109,-0.0071,-0.0044,0.0005,0.0045,0.0049,0.0074,0.011,0.0116,0.0154,0.0194,0.0179,0.021,0.0219,0.0132,0.0134,0.0135,0.0136,0,0,-0.0181,-0.0212,-0.0222,-0.024,-0.0218,-0.022,-0.021,-0.0178,-0.0161,-0.0129,-0.0107,-0.0065,-0.0027,0.0001,0.0042,0.0096,0.0134,0.0122,0.0127,0.015,0.0255,0.0267,0.0278,0.0177,0.0179,0.018,0.0254,0,-0.0252,-0.0333,-0.0314,-0.0361,-0.0394,-0.0331,-0.0318,-0.0271,-0.0225,-0.0186,-0.011,-0.0077,-0.0045,-0.0034,0.0027,0.0111,0.0159,0.0109,0.0266,0.027,0.0285,0.029,0.0262,0.0327,0.0263,0.0265,0.0266,0,-0.0337,-0.0378,-0.0459,-0.0456,-0.0462,-0.0472,-0.0433,-0.0411,-0.0315,-0.0274,-0.0207,-0.0139,-0.006,-0.0033,0.0116,0.0077,0.0152,0.0219,0.0225,0.0273,0.0301,0.0339,0.0347,0.0282,0.0281,0.0279,0.0278,0,-0.0418,-0.0468,-0.0542,-0.0546,-0.0538,-0.0551,-0.0536,-0.0455,-0.0421,-0.033,-0.03,-0.0176,-0.0132,-0.0005,0.0127,0.0122,0.0288,0.0312,0.0394,0.0394,0.0423,0.0423,0.0421,0.0421,0.0421,0.0421,0.0421,0,-0.0493,-0.0544,-0.0595,-0.0631,-0.0679,-0.0645,-0.0653,-0.0601,-0.0526,-0.0477,-0.0364,-0.0298,-0.0123,-0.0002,0.012,0.028,0.0293,0.0391,0.0426,0.0391,0.0388,0.0398,0.0394,0.0424,0.0423,0.0422,0.0422,0,-0.0561,-0.0597,-0.0682,-0.0722,-0.0725,-0.0769,-0.0737,-0.0724,-0.0651,-0.0591,-0.0566,-0.039,-0.0224,-0.0052,0.0161,0.0262,0.0423,0.0476,0.0399,0.0424,0.0476,0.0468,0.0576,0.0577,0.0578,0.0579,0.058,0,-0.061,-0.0673,-0.0762,-0.0803,-0.0829,-0.0867,-0.0867,-0.0798,-0.0767,-0.0631,-0.0602,-0.0436,-0.0276,0.0019,0.0229,0.0446,0.0455,0.0532,0.0535,0.0475,0.0498,0.0487,0.0478,0.0527,0.0527,0.0528,0.0528,0,-0.0706,-0.0752,-0.0816,-0.0886,-0.0932,-0.0964,-0.0965,-0.0938,-0.0837,-0.0759,-0.0605,-0.047,-0.0197,0.0064,0.0317,0.0441,0.0497,0.0543,0.0534,0.0489,0.0435,0.0455,0.0447,0.053,0.053,0.053,0.0529,0.0529,-0.0782,-0.0849,-0.0921,-0.0967,-0.1021,-0.1044,-0.1031,-0.0983,-0.0902,-0.0732,-0.0603,-0.0358,-0.0165,0.0241,0.0396,0.0541,0.0547,0.0593,0.059,0.0588,0.0566,0.0517,0.0621,0.0621,0.0621,0.0621,0.0622,0,-0.0871,-0.092,-0.0978,-0.1037,-0.1083,-0.1089,-0.1068,-0.1011,-0.0891,-0.0697,-0.0512,-0.0226,0.0047,0.0251,0.0483,0.0607,0.0589,0.0621,0.0574,0.0572,0.0569,0.0545,0.0595,0.0595,0.0596,0.0596,0,0,-0.0922,-0.0995,-0.1,-0.1066,-0.1103,-0.1107,-0.109,-0.0984,-0.0829,-0.0598,-0.038,-0.0137,0.0102,0.0261,0.0392,0.0508,0.0506,0.0512,0.052,0.0444,0.0441,0.054,0.0498,0,0,0,0,0]}],[{"header":{"parameterUnit":"m.s-1","parameterCategory":2,"la1":30.2991,"la2":30.254,"lo1":-89.0895,"lo2":-89.0444,"dy":0.0017,"dx":0.0017,"nx":28,"ny":28,"refTime":"2024-12-31T03:00:00:Z","depth":"4","parameterNumber":2,"parameterNumberName":"U-component_of_CURRENTS"},"data":[0,0,0,0,0,0,0,0,0,0,0,0,0,0,0,0,0,0,0,0,0,0,0,0,0,0,0,0,0,0,0,0,0,0,0,0,0,0,0,0,0,0,0,0,0,0,0,0,0,0,0,0,0,0,0,0,0,0,-0.101,-0.1011,0,-0.1027,-0.1027,-0.1027,-0.1052,-0.1052,-0.1053,-0.1053,-0.1061,-0.1061,-0.106,0,0,0,0,0,0,0,0,0,0,0,0,0,-0.0958,-0.0959,-0.101,-0.1011,-0.1011,-0.1027,-0.1027,-0.1027,-0.1051,-0.1052,-0.1053,-0.1053,-0.1061,-0.1061,-0.106,0,0,0,0,0,0,0,0,0,0,0,0,0,-0.0977,-0.0959,-0.101,-0.1026,-0.1027,-0.1027,-0.1027,-0.1027,-0.1051,-0.1052,-0.1053,-0.1054,-0.1061,-0.1061,-0.106,-0.1042,0,0,-0.1059,-0.1059,0,0,0,0,0,0,0,0,-0.0976,-0.0979,-0.1023,-0.1025,-0.1027,-0.1039,-0.1012,-0.1032,-0.1051,-0.1041,-0.1053,-0.1054,-0.1053,-0.1053,-0.1053,-0.1042,-0.1043,-0.1059,-0.1059,-0.1059,-0.1058,0,0,0,0,0,0,0,-0.0975,-0.0978,-0.1016,-0.1023,-0.1026,-0.1018,-0.1022,-0.1015,-0.1041,-0.1042,-0.1044,-0.1047,-0.1054,-0.1053,-0.1053,-0.1043,-0.1059,-0.1059,-0.1058,-0.1058,-0.1075,-0.1076,0,0,0,0,0,0,-0.0977,-0.0977,-0.1015,-0.1016,-0.1004,-0.1018,-0.1023,-0.1033,-0.1042,-0.1044,-0.1047,-0.1049,-0.1054,-0.1054,-0.1054,-0.1086,-0.1059,-0.1058,-0.1058,-0.1074,-0.1075,-0.1076,0,0,0,0,0,0,-0.0976,-0.098,-0.1015,-0.0997,-0.1002,-0.1019,-0.103,-0.1033,-0.1048,-0.1046,-0.1048,-0.1061,-0.1054,-0.1054,-0.1067,-0.1085,-0.1058,-0.1058,-0.1074,-0.1075,-0.1076,-0.1116,0,0,0,0,0,0,-0.0974,-0.098,-0.0992,-0.0998,-0.1003,-0.1026,-0.103,-0.1033,-0.1049,-0.1052,-0.1058,-0.1059,-0.1055,-0.1067,-0.1066,-0.1083,-0.1057,-0.1073,-0.1074,-0.1075,-0.1114,-0.1118,-0.1122,0,0,0,0,0,-0.0972,-0.0983,-0.0993,-0.0998,-0.1018,-0.1026,-0.1028,-0.1041,-0.1049,-0.1057,-0.1066,-0.1059,-0.1075,-0.1067,-0.1066,-0.1084,-0.1072,-0.1074,-0.1075,-0.1112,-0.1117,-0.1122,0,0,0,0,0,0,-0.0963,-0.0987,-0.0998,-0.1015,-0.1026,-0.1031,-0.1039,-0.1048,-0.106,-0.1064,-0.1064,-0.1066,-0.1084,-0.1076,-0.1068,-0.1093,-0.1074,-0.1075,-0.1102,-0.1107,-0.1111,-0.1135,-0.1057,0,0,0,0,0,-0.0968,-0.0987,-0.1001,-0.1016,-0.1022,-0.1033,-0.1039,-0.1048,-0.1057,-0.1064,-0.1072,-0.1078,-0.1086,-0.1091,-0.1093,-0.1102,-0.1112,-0.1113,-0.1118,-0.1121,-0.114,-0.1158,-0.1166,-0.1081,-0.1081,-0.1081,0,0,-0.0969,-0.0983,-0.0995,-0.1016,-0.1024,-0.1037,-0.1039,-0.1051,-0.1072,-0.1061,-0.1092,-0.1092,-0.1092,-0.1108,-0.1116,-0.1106,-0.1152,-0.1123,-0.1126,-0.1144,-0.1161,-0.1169,-0.1177,-0.1082,-0.1082,-0.1082,0,0,-0.0967,-0.0993,-0.1002,-0.1014,-0.103,-0.1043,-0.1051,-0.1066,-0.1086,-0.1105,-0.111,-0.1129,-0.113,-0.1146,-0.115,-0.1178,-0.1174,-0.1171,-0.1212,-0.1229,-0.1236,-0.1243,-0.1275,-0.1284,-0.1173,-0.1173,-0.1173,0,-0.0965,-0.0985,-0.1005,-0.1012,-0.1029,-0.105,-0.1063,-0.1083,-0.1105,-0.113,-0.1121,-0.1158,-0.1154,-0.1193,-0.1203,-0.119,-0.1199,-0.1192,-0.1235,-0.1242,-0.1248,-0.1279,-0.1289,-0.1175,-0.1175,-0.1174,-0.1174,0,-0.0963,-0.0986,-0.0991,-0.1019,-0.1039,-0.1054,-0.1086,-0.1115,-0.114,-0.1165,-0.1211,-0.1213,-0.1241,-0.1238,-0.1228,-0.1273,-0.1266,-0.1238,-0.1224,-0.1259,-0.129,-0.1299,-0.1178,-0.1177,-0.1177,-0.1176,0,0,-0.0938,-0.0984,-0.0987,-0.1009,-0.1048,-0.1064,-0.1111,-0.1162,-0.1209,-0.1231,-0.1286,-0.1304,-0.1317,-0.1324,-0.1319,-0.1334,-0.1382,-0.1306,-0.1306,-0.1342,-0.1433,-0.1311,-0.1309,-0.1354,-0.1356,-0.1357,-0.144,0,-0.0932,-0.0954,-0.0986,-0.1025,-0.104,-0.109,-0.1136,-0.1188,-0.1239,-0.1297,-0.1324,-0.1369,-0.1347,-0.1365,-0.1379,-0.1373,-0.1407,-0.1364,-0.1391,-0.1392,-0.1282,-0.1315,-0.1362,-0.1447,-0.1449,-0.145,-0.1451,0,-0.0914,-0.0937,-0.0968,-0.1041,-0.1055,-0.1088,-0.1182,-0.123,-0.1318,-0.1354,-0.141,-0.1437,-0.1481,-0.1448,-0.1487,-0.1455,-0.1462,-0.1458,-0.146,-0.134,-0.1286,-0.1402,-0.1468,-0.1467,-0.1466,-0.1464,-0.1463,0,-0.0875,-0.0929,-0.0962,-0.0981,-0.1058,-0.1098,-0.1153,-0.1246,-0.1302,-0.1403,-0.1446,-0.1503,-0.1535,-0.1544,-0.1547,-0.1519,-0.1581,-0.1538,-0.1451,-0.1443,-0.1512,-0.1504,-0.159,-0.159,-0.159,-0.159,-0.1589,0,-0.0848,-0.0876,-0.0949,-0.0962,-0.1023,-0.1085,-0.1164,-0.1234,-0.133,-0.1401,-0.1475,-0.1524,-0.1559,-0.1598,-0.1583,-0.1542,-0.1616,-0.1474,-0.1454,-0.1528,-0.152,-0.152,-0.151,-0.1593,-0.1592,-0.1592,-0.1591,0,-0.079,-0.0839,-0.088,-0.0965,-0.1001,-0.1044,-0.1159,-0.1211,-0.1315,-0.1409,-0.1444,-0.155,-0.1578,-0.1613,-0.1638,-0.158,-0.156,-0.1542,-0.1651,-0.1634,-0.1407,-0.14,-0.1437,-0.1433,-0.143,-0.1428,-0.1425,0,-0.0761,-0.0771,-0.0865,-0.0894,-0.0934,-0.1009,-0.106,-0.1183,-0.1241,-0.1411,-0.1441,-0.1533,-0.1582,-0.1528,-0.156,-0.154,-0.1517,-0.1523,-0.1435,-0.1414,-0.1392,-0.1389,-0.1385,-0.142,-0.142,-0.1419,-0.1418,0,-0.0696,-0.0733,-0.0767,-0.0822,-0.0878,-0.0945,-0.103,-0.1071,-0.1222,-0.1327,-0.1395,-0.1425,-0.146,-0.1452,-0.146,-0.1441,-0.1512,-0.149,-0.1495,-0.1412,-0.1394,-0.1375,-0.1375,-0.1407,-0.1409,-0.141,-0.141,0,-0.0646,-0.0652,-0.0693,-0.0741,-0.0813,-0.0865,-0.0926,-0.0992,-0.107,-0.1262,-0.128,-0.1368,-0.1455,-0.1404,-0.1408,-0.1374,-0.133,-0.1283,-0.1298,-0.1311,-0.1223,-0.1179,-0.112,0,0,0,0,0,-0.058,-0.0576,-0.0608,-0.0664,-0.0733,-0.0774,-0.0899,-0.0962,-0.1121,-0.113,-0.1203,-0.1229,-0.1238,-0.1277,-0.1206,-0.1328,-0.1329,-0.1241,-0.1281,-0.1347,-0.136,-0.1263,0,0,0,0,0,0,-0.0537,-0.0551,-0.0571,-0.0587,-0.061,-0.0681,-0.076,-0.0865,-0.0876,-0.1031,-0.1027,-0.1133,-0.1136,-0.1237,-0.1168,-0.1179,-0.1175,-0.129,-0.1286,-0.134,-0.1351,-0.1362,-0.1266,0,0,0,0,0]},{"header":{"parameterUnit":"m.s-1","parameterCategory":2,"la1":30.2991,"la2":30.254,"lo1":-89.0895,"lo2":-89.0444,"dy":0.0017,"dx":0.0017,"nx":28,"ny":28,"refTime":"2024-12-31T03:00:00:Z","depth":"4","parameterNumber":3,"parameterNumberName":"V-component_of_CURRENTS"},"data":[0,0,0,0,0,0,0,0,0,0,0,0,0,0,0,0,0,0,0,0,0,0,0,0,0,0,0,0,0,0,0,0,0,0,0,0,0,0,0,0,0,0,0,0,0,0,0,0,0,0,0,0,0,0,0,0,0,0,0.012,0.012,0,0.0137,0.0137,0.0137,0.0151,0.0151,0.0152,0.0152,0.0181,0.0182,0.0183,0,0,0,0,0,0,0,0,0,0,0,0,0,0.0099,0.0099,0.012,0.012,0.012,0.0137,0.0137,0.0138,0.0151,0.0151,0.0152,0.0152,0.0181,0.0182,0.0183,0,0,0,0,0,0,0,0,0,0,0,0,0,0.0111,0.0099,0.012,0.013,0.0131,0.0137,0.0137,0.0138,0.0151,0.0151,0.0152,0.0152,0.0181,0.0182,0.0183,0.0183,0,0,0.0186,0.0186,0,0,0,0,0,0,0,0,0.011,0.0111,0.0128,0.0129,0.013,0.0143,0.0141,0.0154,0.0151,0.0143,0.0152,0.0152,0.017,0.0172,0.0174,0.0185,0.0186,0.0186,0.0186,0.0187,0.0187,0,0,0,0,0,0,0,0.0109,0.0111,0.0126,0.0128,0.013,0.0133,0.0135,0.0143,0.0155,0.0144,0.0145,0.0147,0.017,0.0173,0.0174,0.0187,0.0186,0.0187,0.0187,0.0188,0.0195,0.0195,0,0,0,0,0,0,0.0108,0.011,0.0126,0.0127,0.0121,0.0133,0.0135,0.0138,0.0154,0.0157,0.0147,0.0148,0.0171,0.0173,0.0175,0.0159,0.0187,0.0188,0.0188,0.0195,0.0195,0.0194,0,0,0,0,0,0,0.0107,0.0109,0.0125,0.0119,0.0122,0.0133,0.0136,0.0138,0.0141,0.0157,0.016,0.0148,0.0171,0.0174,0.0177,0.0161,0.0188,0.0189,0.0196,0.0195,0.0195,0.0139,0,0,0,0,0,0,0.0106,0.0109,0.011,0.0119,0.0122,0.0118,0.0136,0.0138,0.0142,0.0144,0.0159,0.0162,0.0172,0.0176,0.0178,0.0163,0.019,0.0196,0.0196,0.0195,0.0141,0.0136,0.0132,0,0,0,0,0,0.0106,0.0102,0.011,0.0112,0.0123,0.0118,0.0119,0.0128,0.0142,0.0134,0.0148,0.0161,0.0173,0.0176,0.0179,0.0164,0.0197,0.0196,0.0195,0.0143,0.0137,0.0132,0,0,0,0,0,0,0.0095,0.0103,0.0112,0.0113,0.0112,0.012,0.0117,0.0127,0.0132,0.0136,0.0156,0.0159,0.0154,0.017,0.0173,0.0165,0.0187,0.0187,0.0147,0.0142,0.0137,0.0128,0.019,0,0,0,0,0,0.0094,0.0093,0.0099,0.0099,0.0098,0.0109,0.011,0.0114,0.0121,0.0124,0.0136,0.0149,0.0153,0.0156,0.0163,0.016,0.0192,0.0154,0.0149,0.0145,0.0141,0.0183,0.0182,0.0192,0.0192,0.0192,0,0,0.0091,0.0095,0.0096,0.0097,0.0099,0.0079,0.0109,0.0104,0.009,0.0126,0.0114,0.0133,0.0149,0.0141,0.0141,0.0153,0.0159,0.0144,0.014,0.0138,0.0182,0.0181,0.0181,0.0191,0.0191,0.0191,0,0,0.007,0.0086,0.007,0.0063,0.006,0.0063,0.006,0.0064,0.0069,0.0061,0.0084,0.0096,0.01,0.0111,0.0117,0.0095,0.0134,0.0097,0.0067,0.0107,0.0107,0.0107,0.0146,0.015,0.0095,0.0095,0.0095,0,0.0064,0.0045,0.0063,0.0037,0.0025,0.0051,0.0019,0.0025,0.003,0.0035,0.0047,0.0068,0.0083,0.0083,0.0072,0.0084,0.0115,0.0082,0.0102,0.0102,0.0103,0.0143,0.0148,0.0092,0.0093,0.0093,0.0093,0,0.0022,0.0004,-0.0008,-0.0033,-0.0044,-0.0064,-0.006,-0.0059,-0.0046,-0.0034,-0.0025,0.0003,0.0018,0.0024,0.0037,0.0049,0.0071,0.009,0.0114,0.0099,0.0142,0.0148,0.0088,0.0089,0.009,0.0091,0,0,0.0011,-0.0031,-0.0036,-0.0066,-0.0084,-0.0101,-0.0118,-0.0126,-0.0127,-0.0108,-0.0104,-0.009,-0.0055,-0.0045,-0.0015,0.0019,0.0051,0.0051,0.0055,0.0087,0.0143,0.013,0.0136,0.0076,0.0077,0.0078,0.0169,0,-0.0031,-0.0098,-0.0104,-0.0168,-0.0205,-0.0193,-0.0213,-0.0211,-0.019,-0.0175,-0.0128,-0.0113,-0.0087,-0.0072,-0.0038,0.0032,0.0066,0.0025,0.0155,0.0158,0.0146,0.0142,0.008,0.0174,0.0176,0.0177,0.0178,0,-0.0075,-0.0117,-0.0189,-0.0243,-0.0256,-0.0286,-0.0302,-0.0313,-0.0277,-0.0257,-0.0221,-0.0172,-0.0125,-0.0094,0.0011,-0.0014,0.0053,0.011,0.0116,0.0126,0.0157,0.0194,0.019,0.0189,0.0188,0.0187,0.0186,0,-0.0104,-0.0175,-0.0236,-0.0257,-0.031,-0.0332,-0.035,-0.0337,-0.0338,-0.0294,-0.0275,-0.0212,-0.0167,-0.0081,0.0031,0.0027,0.016,0.0173,0.0224,0.0225,0.0235,0.0234,0.0247,0.0247,0.0247,0.0247,0.0246,0,-0.0149,-0.0197,-0.0255,-0.0292,-0.0361,-0.0373,-0.0412,-0.0411,-0.0389,-0.0385,-0.0314,-0.0279,-0.0159,-0.0066,0.0027,0.0143,0.016,0.0217,0.0246,0.0209,0.0204,0.024,0.0238,0.025,0.0249,0.0249,0.0248,0,-0.0171,-0.0209,-0.0286,-0.0355,-0.038,-0.0424,-0.0465,-0.0475,-0.0449,-0.0434,-0.0418,-0.0319,-0.02,-0.0076,0.0079,0.0138,0.0253,0.0292,0.0243,0.0268,0.0292,0.0286,0.0353,0.0353,0.0353,0.0353,0.0353,0,-0.0189,-0.0231,-0.0331,-0.038,-0.0416,-0.0475,-0.0508,-0.051,-0.0508,-0.0454,-0.0439,-0.0325,-0.0249,-0.0031,0.0086,0.0259,0.0279,0.0333,0.0304,0.028,0.0302,0.0296,0.029,0.0354,0.0354,0.0354,0.0354,0,-0.0223,-0.0255,-0.0317,-0.0419,-0.0478,-0.0539,-0.0576,-0.058,-0.0561,-0.0536,-0.0438,-0.0324,-0.0189,-0.003,0.0104,0.0226,0.0292,0.0336,0.0336,0.0309,0.0283,0.0302,0.0296,0.0355,0.0355,0.0354,0.0354,0,-0.0235,-0.0284,-0.0362,-0.0453,-0.0527,-0.058,-0.0602,-0.0586,-0.0579,-0.0506,-0.0473,-0.032,-0.0228,-0.0046,0.0078,0.0192,0.0214,0.0241,0.0247,0.0247,0.0181,0.0129,0.0178,0,0,0,0,0,-0.0239,-0.0298,-0.039,-0.049,-0.056,-0.0602,-0.0635,-0.0636,-0.0611,-0.0545,-0.0507,-0.0376,-0.0178,-0.0082,0.0031,0.0061,0.0215,0.0193,0.0244,0.0359,0.0358,0.0295,0,0,0,0,0,0,-0.0245,-0.0323,-0.0389,-0.0496,-0.056,-0.0629,-0.0651,-0.0639,-0.0588,-0.0542,-0.0426,-0.0361,-0.016,-0.0239,0.0032,0.0066,0.0109,0.0292,0.0294,0.0359,0.0358,0.0358,0.0293,0,0,0,0,0]}]]